Weather Roundup
Issued by NWS

Home | Current Version | Previous Version | Text Only | Print | Product List | Glossary On
Versions: 1 2 3 4 5 6 7 8 9 10 11 12 13 14 15 16 17 18 19 20 21 22 23 24 25 26 27 28 29 30 31 32 33 34 35 36 37 38 39 40 41 42 43 44 45 46 47 48 49 50
000
NZUS93 KARX 260959
HRRWXR

CURRENT HOURLY OBSERVATIONS ACROSS
MUCH OF THE UPPER MISSISSIPPI VALLEY
NATIONAL WEATHER SERVICE LA CROSSE WI
500 AM CDT THU APR 26 2018


...SOUTHEAST MINNESOTA...


CITY           SKY/WX    TMP DP  RH WIND       PRES   REMARKS
ROCHESTER      FAIR      37  33  85 S6        29.92S WCI  32
ROCHESTER/MAYO FAIR      41  32  71 S3        29.92S
WINONA         FAIR      36  32  87 CALM      29.91F
AUSTIN         FAIR      37  34  87 CALM      29.92S
ALBERT LEA     FAIR      37  37 100 CALM      29.92R
DODGE CENTER   FAIR      37  32  81 S6        29.91F WCI  33
PRESTON        FAIR      39  31  73 SW5       29.93S
OWATONNA       FAIR      43  36  75 S8        29.90F
FARIBAULT      NOT AVBL
$$

...ELSEWHERE IN MINNESOTA...


CITY           SKY/WX    TMP DP  RH WIND       PRES   REMARKS
MINNEAPOLIS    CLOUDY    47  34  60 SW6       29.88F
INTNL FALLS    MOCLDY    40  30  67 NW7       29.75R
DULUTH         FAIR      42  28  57 W13       29.80F
RED WING       FAIR      36  28  75 CALM      29.89F
REDWOOD FALLS  CLOUDY    39  33  79 S8        29.85S WCI  33
MANKATO        FAIR      40  34  79 S5        29.89F
WORTHINGTON    CLOUDY    43  31  62 SW12      29.89F
FAIRMONT       CLOUDY    41  35  79 S13       29.90F
$$

...SOUTHWEST WISCONSIN...


CITY           SKY/WX    TMP DP  RH WIND       PRES   REMARKS
LA CROSSE      FAIR      40  33  76 SE5       29.92S
PRAIRIE DU CHI FAIR      35  28  77 E3        29.94S
BOSCOBEL       FAIR      32  29  88 CALM      29.95S
LONE ROCK      NOT AVBL
PLATTEVILLE    FAIR      38  32  81 SE6       29.95S WCI  33
FORT MC COY    FAIR      29  26  88 CALM      29.93S
CAMP DOUGLAS   FAIR      32  29  88 SE3       29.91F
MAUSTON-NEW LI FAIR      33  31  94 CALM      29.92S
VIROQUA        FAIR      45  29  53 S3        29.92F
WIS DELLS      FAIR      37  31  76 S5        29.93S WCI  34
$$

...ELSEWHERE IN WISCONSIN...


CITY           SKY/WX    TMP DP  RH WIND       PRES   REMARKS
MILWAUKEE      FAIR      38  29  70 W3        29.95F
MADISON        FAIR      40  31  70 SW3       29.95F
GREEN BAY      FAIR      36  31  82 SW3       29.93S
EAU CLAIRE     NOT AVBL
BLACK RVR FLS  FAIR      26  26 100 CALM      29.92S
MEDFORD        FAIR      35  27  70 S5        29.89S WCI  31
WAUSAU         FAIR      31  27  85 CALM      29.88F
WIS RAPIDS     FAIR      32  27  81 CALM      29.92F
MARSHFIELD     FAIR      35  29  78 SW5       29.89F WCI  31
RICE LAKE      FAIR      31  29  91 CALM      29.89F
$$

...NORTHEAST IOWA...


CITY           SKY/WX    TMP DP  RH WIND       PRES   REMARKS
WATERLOO       FAIR      33  31  92 CALM      29.94S
DUBUQUE        FAIR      37  31  78 S7        29.94F WCI  32
DECORAH        MOCLDY    39  32  75 CALM      29.92S
MASON CITY     PTCLDY    38  34  85 S5        29.94S WCI  34
CHARLES CITY   FAIR      37  37 100 S6        29.94S WCI  33
OELWEIN        FAIR      37  37 100 W5        29.94S WCI  34
$$

...ELSEWHERE IN IOWA...


CITY           SKY/WX    TMP DP  RH WIND       PRES   REMARKS
DES MOINES     CLOUDY    43  33  68 CALM      29.95F
IOWA CITY      FAIR      38  31  76 CALM      29.96R
FORT DODGE     PTCLDY    39  34  82 S5        29.94F
MARSHALLTOWN   CLOUDY    37  32  82 NW3       29.94S
CEDAR RAPIDS   FAIR      38  29  70 N6        29.93S WCI  33
$$

...NORTHERN ILLINOIS...


CITY           SKY/WX    TMP DP  RH WIND       PRES   REMARKS
CHICAGO-OHARE  FAIR      37  29  72 CALM      29.95S
CHICAGO-MIDWAY FAIR      36  30  79 CALM      29.95F
MOLINE         FAIR      35  30  82 E6        29.95S WCI  30
ROCKFORD       FAIR      35  28  75 CALM      29.97F
PEORIA         FAIR      39  30  70 CALM      29.96S
$$

NOTE: "FAIR" INDICATES FEW OR NO CLOUDS BELOW 12,000 FEET WITH NO
SIGNIFICANT WEATHER AND/OR OBSTRUCTIONS TO VISIBILITY. WIND
SPEEDS ARE IN MILES-PER-HOUR.




USA.gov is the U.S. government's official web portal to all federal, state and local government web resources and services.